Date_Time,Julian_Date,Latitude,Longitude,Instrument_Depth,U,V,Speed,Direction
(yyyy-mm-dd hh:mn:ss UTC),(JD),(+ deg. North),(+ deg. East),(m),(cm/s),(cm/s),(cm/s),(deg True)
1984-01-04 18:30:00 UTC,2445704.270833,28.7317,-95.2428,0215,1.21,-4.85,5.0000,166.0000
1984-01-04 19:00:00 UTC,2445704.291667,28.7317,-95.2428,0215,0.87,-4.92,5.0000,170.0000
1984-01-04 19:30:00 UTC,2445704.312500,28.7317,-95.2428,0215,0.61,-4.96,5.0000,173.0000
1984-01-04 20:00:00 UTC,2445704.333333,28.7317,-95.2428,0215,0.44,-4.98,5.0000,175.0000
1984-01-04 20:30:00 UTC,2445704.354167,28.7317,-95.2428,0215,0.42,-5.99,6.0000,176.0000
1984-01-04 21:00:00 UTC,2445704.375000,28.7317,-95.2428,0215,0.12,-7.00,7.0000,179.0000
1984-01-04 21:30:00 UTC,2445704.395833,28.7317,-95.2428,0215,-0.37,-6.99,7.0000,183.0000
1984-01-04 22:00:00 UTC,2445704.416667,28.7317,-95.2428,0215,-0.70,-7.97,8.0000,185.0000
1984-01-04 22:30:00 UTC,2445704.437500,28.7317,-95.2428,0215,-0.70,-7.97,8.0000,185.0000
1984-01-04 23:00:00 UTC,2445704.458333,28.7317,-95.2428,0215,-0.56,-7.98,8.0000,184.0000
1984-01-04 23:30:00 UTC,2445704.479167,28.7317,-95.2428,0215,-1.10,-8.93,9.0000,187.0000
1984-01-05 00:00:00 UTC,2445704.500000,28.7317,-95.2428,0215,-1.25,-8.91,9.0000,188.0000
1984-01-05 00:30:00 UTC,2445704.520833,28.7317,-95.2428,0215,-0.94,-8.95,9.0000,186.0000
1984-01-05 01:00:00 UTC,2445704.541667,28.7317,-95.2428,0215,-1.10,-8.93,9.0000,187.0000
1984-01-05 01:30:00 UTC,2445704.562500,28.7317,-95.2428,0215,-1.25,-8.91,9.0000,188.0000
1984-01-05 02:00:00 UTC,2445704.583333,28.7317,-95.2428,0215,-0.94,-8.95,9.0000,186.0000
1984-01-05 02:30:00 UTC,2445704.604167,28.7317,-95.2428,0215,-0.70,-7.97,8.0000,185.0000
1984-01-05 03:00:00 UTC,2445704.625000,28.7317,-95.2428,0215,-0.70,-7.97,8.0000,185.0000
1984-01-05 03:30:00 UTC,2445704.645833,28.7317,-95.2428,0215,-0.84,-7.96,8.0000,186.0000
1984-01-05 04:00:00 UTC,2445704.666667,28.7317,-95.2428,0215,-0.85,-6.95,7.0000,187.0000
1984-01-05 04:30:00 UTC,2445704.687500,28.7317,-95.2428,0215,-0.73,-6.96,7.0000,186.0000
1984-01-05 05:00:00 UTC,2445704.708333,28.7317,-95.2428,0215,-0.49,-6.98,7.0000,184.0000
1984-01-05 05:30:00 UTC,2445704.729167,28.7317,-95.2428,0215,-0.49,-6.98,7.0000,184.0000
1984-01-05 06:00:00 UTC,2445704.750000,28.7317,-95.2428,0215,-0.52,-5.98,6.0000,185.0000
1984-01-05 06:30:00 UTC,2445704.770833,28.7317,-95.2428,0215,-0.35,-4.99,5.0000,184.0000
1984-01-05 07:00:00 UTC,2445704.791667,28.7317,-95.2428,0215,-0.35,-4.99,5.0000,184.0000
1984-01-05 07:30:00 UTC,2445704.812500,28.7317,-95.2428,0215,-0.28,-3.99,4.0000,184.0000
1984-01-05 08:00:00 UTC,2445704.833333,28.7317,-95.2428,0215,0.14,-4.00,4.0000,178.0000
1984-01-05 08:30:00 UTC,2445704.854167,28.7317,-95.2428,0215,0.00,-5.00,5.0000,180.0000
1984-01-05 09:00:00 UTC,2445704.875000,28.7317,-95.2428,0215,-0.35,-4.99,5.0000,184.0000
1984-01-05 09:30:00 UTC,2445704.895833,28.7317,-95.2428,0215,-0.10,-6.00,6.0000,181.0000
1984-01-05 10:00:00 UTC,2445704.916667,28.7317,-95.2428,0215,0.10,-6.00,6.0000,179.0000
1984-01-05 10:30:00 UTC,2445704.937500,28.7317,-95.2428,0215,-0.10,-6.00,6.0000,181.0000
1984-01-05 11:00:00 UTC,2445704.958333,28.7317,-95.2428,0215,-0.31,-5.99,6.0000,183.0000
1984-01-05 11:30:00 UTC,2445704.979167,28.7317,-95.2428,0215,-0.31,-5.99,6.0000,183.0000
1984-01-05 12:00:00 UTC,2445705.000000,28.7317,-95.2428,0215,0.00,-5.00,5.0000,180.0000
1984-01-05 12:30:00 UTC,2445705.020833,28.7317,-95.2428,0215,0.35,-4.99,5.0000,176.0000
1984-01-05 13:00:00 UTC,2445705.041667,28.7317,-95.2428,0215,0.35,-4.99,5.0000,176.0000
1984-01-05 13:30:00 UTC,2445705.062500,28.7317,-95.2428,0215,0.49,-3.97,4.0000,173.0000
1984-01-05 14:00:00 UTC,2445705.083333,28.7317,-95.2428,0215,0.72,-1.87,2.0000,159.0000
1984-01-05 14:30:00 UTC,2445705.104167,28.7317,-95.2428,0215,0.82,-0.57,1.0000,125.0000
1984-01-05 15:00:00 UTC,2445705.125000,28.7317,-95.2428,0215,0.93,-0.37,1.0000,112.0000
1984-01-05 15:30:00 UTC,2445705.145833,28.7317,-95.2428,0215,0.00,-0.00,0.0000,97.0000
1984-01-05 16:00:00 UTC,2445705.166667,28.7317,-95.2428,0215,0.67,0.74,1.0000,42.0000
1984-01-05 16:30:00 UTC,2445705.187500,28.7317,-95.2428,0215,1.81,2.40,3.0000,37.0000
1984-01-05 17:00:00 UTC,2445705.208333,28.7317,-95.2428,0215,3.08,3.94,5.0000,38.0000
1984-01-05 17:30:00 UTC,2445705.229167,28.7317,-95.2428,0215,4.31,5.52,7.0000,38.0000
1984-01-05 18:00:00 UTC,2445705.250000,28.7317,-95.2428,0215,4.02,5.73,7.0000,35.0000
1984-01-05 18:30:00 UTC,2445705.270833,28.7317,-95.2428,0215,3.61,6.00,7.0000,31.0000
1984-01-05 19:00:00 UTC,2445705.291667,28.7317,-95.2428,0215,3.29,6.18,7.0000,28.0000
1984-01-05 19:30:00 UTC,2445705.312500,28.7317,-95.2428,0215,3.38,7.25,8.0000,25.0000
1984-01-05 20:00:00 UTC,2445705.333333,28.7317,-95.2428,0215,3.13,7.36,8.0000,23.0000
1984-01-05 20:30:00 UTC,2445705.354167,28.7317,-95.2428,0215,2.39,6.58,7.0000,20.0000
1984-01-05 21:00:00 UTC,2445705.375000,28.7317,-95.2428,0215,1.35,5.85,6.0000,13.0000
1984-01-05 21:30:00 UTC,2445705.395833,28.7317,-95.2428,0215,0.35,4.99,5.0000,4.0000
1984-01-05 22:00:00 UTC,2445705.416667,28.7317,-95.2428,0215,-0.17,5.00,5.0000,358.0000
1984-01-05 22:30:00 UTC,2445705.437500,28.7317,-95.2428,0215,-0.44,4.98,5.0000,355.0000
1984-01-05 23:00:00 UTC,2445705.458333,28.7317,-95.2428,0215,-1.10,3.85,4.0000,344.0000
1984-01-05 23:30:00 UTC,2445705.479167,28.7317,-95.2428,0215,-2.05,2.19,3.0000,317.0000
1984-01-06 00:00:00 UTC,2445705.500000,28.7317,-95.2428,0215,-2.90,0.78,3.0000,285.0000
1984-01-06 00:30:00 UTC,2445705.520833,28.7317,-95.2428,0215,-3.99,0.28,4.0000,274.0000
1984-01-06 01:00:00 UTC,2445705.541667,28.7317,-95.2428,0215,-2.90,0.78,3.0000,285.0000
1984-01-06 01:30:00 UTC,2445705.562500,28.7317,-95.2428,0215,-0.84,0.54,1.0000,303.0000
1984-01-06 02:00:00 UTC,2445705.583333,28.7317,-95.2428,0215,-0.00,0.00,0.0000,317.0000
1984-01-06 02:30:00 UTC,2445705.604167,28.7317,-95.2428,0215,-0.00,0.00,0.0000,277.0000
1984-01-06 03:00:00 UTC,2445705.625000,28.7317,-95.2428,0215,-0.41,-0.91,1.0000,204.0000
1984-01-06 03:30:00 UTC,2445705.645833,28.7317,-95.2428,0215,-0.37,-0.93,1.0000,202.0000
1984-01-06 04:00:00 UTC,2445705.666667,28.7317,-95.2428,0215,-0.39,-0.92,1.0000,203.0000
1984-01-06 04:30:00 UTC,2445705.687500,28.7317,-95.2428,0215,0.00,0.00,0.0000,10.0000
1984-01-06 05:00:00 UTC,2445705.708333,28.7317,-95.2428,0215,0.78,1.84,2.0000,23.0000
1984-01-06 05:30:00 UTC,2445705.729167,28.7317,-95.2428,0215,2.03,4.57,5.0000,24.0000
1984-01-06 06:00:00 UTC,2445705.750000,28.7317,-95.2428,0215,1.79,4.67,5.0000,21.0000
1984-01-06 06:30:00 UTC,2445705.770833,28.7317,-95.2428,0215,0.87,4.92,5.0000,10.0000
1984-01-06 07:00:00 UTC,2445705.791667,28.7317,-95.2428,0215,0.42,5.99,6.0000,4.0000
1984-01-06 07:30:00 UTC,2445705.812500,28.7317,-95.2428,0215,1.34,6.87,7.0000,11.0000
1984-01-06 08:00:00 UTC,2445705.833333,28.7317,-95.2428,0215,2.47,7.61,8.0000,18.0000
1984-01-06 08:30:00 UTC,2445705.854167,28.7317,-95.2428,0215,3.42,9.40,10.0000,20.0000
1984-01-06 09:00:00 UTC,2445705.875000,28.7317,-95.2428,0215,4.69,11.05,12.0000,23.0000
1984-01-06 09:30:00 UTC,2445705.895833,28.7317,-95.2428,0215,5.26,10.79,12.0000,26.0000
1984-01-06 10:00:00 UTC,2445705.916667,28.7317,-95.2428,0215,4.99,9.80,11.0000,27.0000
1984-01-06 10:30:00 UTC,2445705.937500,28.7317,-95.2428,0215,4.36,7.87,9.0000,29.0000
1984-01-06 11:00:00 UTC,2445705.958333,28.7317,-95.2428,0215,3.39,6.12,7.0000,29.0000
1984-01-06 11:30:00 UTC,2445705.979167,28.7317,-95.2428,0215,1.36,2.67,3.0000,27.0000
1984-01-06 12:00:00 UTC,2445706.000000,28.7317,-95.2428,0215,-0.22,-0.97,1.0000,193.0000
1984-01-06 12:30:00 UTC,2445706.020833,28.7317,-95.2428,0215,-1.03,-2.82,3.0000,200.0000
1984-01-06 13:00:00 UTC,2445706.041667,28.7317,-95.2428,0215,-1.95,-4.60,5.0000,203.0000
1984-01-06 13:30:00 UTC,2445706.062500,28.7317,-95.2428,0215,-1.79,-4.67,5.0000,201.0000
1984-01-06 14:00:00 UTC,2445706.083333,28.7317,-95.2428,0215,-1.38,-4.81,5.0000,196.0000
1984-01-06 14:30:00 UTC,2445706.104167,28.7317,-95.2428,0215,-0.97,-3.88,4.0000,194.0000
1984-01-06 15:00:00 UTC,2445706.125000,28.7317,-95.2428,0215,-0.78,-2.90,3.0000,195.0000
1984-01-06 15:30:00 UTC,2445706.145833,28.7317,-95.2428,0215,-0.78,-2.90,3.0000,195.0000
1984-01-06 16:00:00 UTC,2445706.166667,28.7317,-95.2428,0215,-1.24,-3.80,4.0000,198.0000
1984-01-06 16:30:00 UTC,2445706.187500,28.7317,-95.2428,0215,-1.95,-4.60,5.0000,203.0000
1984-01-06 17:00:00 UTC,2445706.208333,28.7317,-95.2428,0215,-2.03,-4.57,5.0000,204.0000
1984-01-06 17:30:00 UTC,2445706.229167,28.7317,-95.2428,0215,-2.03,-4.57,5.0000,204.0000
1984-01-06 18:00:00 UTC,2445706.250000,28.7317,-95.2428,0215,-1.95,-4.60,5.0000,203.0000
1984-01-06 18:30:00 UTC,2445706.270833,28.7317,-95.2428,0215,-1.87,-4.64,5.0000,202.0000
1984-01-06 19:00:00 UTC,2445706.291667,28.7317,-95.2428,0215,-1.95,-4.60,5.0000,203.0000
1984-01-06 19:30:00 UTC,2445706.312500,28.7317,-95.2428,0215,-2.72,-5.35,6.0000,207.0000
1984-01-06 20:00:00 UTC,2445706.333333,28.7317,-95.2428,0215,-3.39,-6.12,7.0000,209.0000
1984-01-06 20:30:00 UTC,2445706.354167,28.7317,-95.2428,0215,-3.39,-6.12,7.0000,209.0000
1984-01-06 21:00:00 UTC,2445706.375000,28.7317,-95.2428,0215,-2.96,-6.34,7.0000,205.0000
1984-01-06 21:30:00 UTC,2445706.395833,28.7317,-95.2428,0215,-2.05,-5.64,6.0000,200.0000
1984-01-06 22:00:00 UTC,2445706.416667,28.7317,-95.2428,0215,-1.65,-5.77,6.0000,196.0000
1984-01-06 22:30:00 UTC,2445706.437500,28.7317,-95.2428,0215,-1.55,-5.80,6.0000,195.0000
1984-01-06 23:00:00 UTC,2445706.458333,28.7317,-95.2428,0215,-1.55,-5.80,6.0000,195.0000
1984-01-06 23:30:00 UTC,2445706.479167,28.7317,-95.2428,0215,-1.81,-6.76,7.0000,195.0000
1984-01-07 00:00:00 UTC,2445706.500000,28.7317,-95.2428,0215,-1.93,-6.73,7.0000,196.0000
1984-01-07 00:30:00 UTC,2445706.520833,28.7317,-95.2428,0215,-2.47,-7.61,8.0000,198.0000
1984-01-07 01:00:00 UTC,2445706.541667,28.7317,-95.2428,0215,-2.92,-9.56,10.0000,197.0000
1984-01-07 01:30:00 UTC,2445706.562500,28.7317,-95.2428,0215,-2.42,-9.70,10.0000,194.0000
1984-01-07 02:00:00 UTC,2445706.583333,28.7317,-95.2428,0215,-2.08,-9.78,10.0000,192.0000
1984-01-07 02:30:00 UTC,2445706.604167,28.7317,-95.2428,0215,-2.08,-9.78,10.0000,192.0000
1984-01-07 03:00:00 UTC,2445706.625000,28.7317,-95.2428,0215,-1.87,-8.80,9.0000,192.0000
1984-01-07 03:30:00 UTC,2445706.645833,28.7317,-95.2428,0215,-1.72,-8.83,9.0000,191.0000
1984-01-07 04:00:00 UTC,2445706.666667,28.7317,-95.2428,0215,-1.72,-8.83,9.0000,191.0000
1984-01-07 04:30:00 UTC,2445706.687500,28.7317,-95.2428,0215,-1.72,-8.83,9.0000,191.0000
1984-01-07 05:00:00 UTC,2445706.708333,28.7317,-95.2428,0215,-0.84,-7.96,8.0000,186.0000
1984-01-07 05:30:00 UTC,2445706.729167,28.7317,-95.2428,0215,-0.31,-5.99,6.0000,183.0000
1984-01-07 06:00:00 UTC,2445706.750000,28.7317,-95.2428,0215,-0.42,-5.99,6.0000,184.0000
1984-01-07 06:30:00 UTC,2445706.770833,28.7317,-95.2428,0215,-0.42,-5.99,6.0000,184.0000
1984-01-07 07:00:00 UTC,2445706.791667,28.7317,-95.2428,0215,-0.31,-5.99,6.0000,183.0000
1984-01-07 07:30:00 UTC,2445706.812500,28.7317,-95.2428,0215,-0.26,-4.99,5.0000,183.0000
1984-01-07 08:00:00 UTC,2445706.833333,28.7317,-95.2428,0215,0.00,-5.00,5.0000,180.0000
1984-01-07 08:30:00 UTC,2445706.854167,28.7317,-95.2428,0215,0.70,-4.95,5.0000,172.0000
1984-01-07 09:00:00 UTC,2445706.875000,28.7317,-95.2428,0215,0.87,-4.92,5.0000,170.0000
1984-01-07 09:30:00 UTC,2445706.895833,28.7317,-95.2428,0215,0.52,-5.98,6.0000,175.0000
1984-01-07 10:00:00 UTC,2445706.916667,28.7317,-95.2428,0215,-0.10,-6.00,6.0000,181.0000
1984-01-07 10:30:00 UTC,2445706.937500,28.7317,-95.2428,0215,-0.61,-6.97,7.0000,185.0000
1984-01-07 11:00:00 UTC,2445706.958333,28.7317,-95.2428,0215,-1.25,-7.90,8.0000,189.0000
1984-01-07 11:30:00 UTC,2445706.979167,28.7317,-95.2428,0215,-1.25,-8.91,9.0000,188.0000
1984-01-07 12:00:00 UTC,2445707.000000,28.7317,-95.2428,0215,-0.63,-8.98,9.0000,184.0000
1984-01-07 12:30:00 UTC,2445707.020833,28.7317,-95.2428,0215,-0.47,-8.99,9.0000,183.0000
1984-01-07 13:00:00 UTC,2445707.041667,28.7317,-95.2428,0215,-0.87,-9.96,10.0000,185.0000
1984-01-07 13:30:00 UTC,2445707.062500,28.7317,-95.2428,0215,-1.39,-9.90,10.0000,188.0000
1984-01-07 14:00:00 UTC,2445707.083333,28.7317,-95.2428,0215,-1.53,-10.89,11.0000,188.0000
1984-01-07 14:30:00 UTC,2445707.104167,28.7317,-95.2428,0215,-1.34,-10.92,11.0000,187.0000
1984-01-07 15:00:00 UTC,2445707.125000,28.7317,-95.2428,0215,-1.15,-10.94,11.0000,186.0000
1984-01-07 15:30:00 UTC,2445707.145833,28.7317,-95.2428,0215,-1.39,-9.90,10.0000,188.0000
1984-01-07 16:00:00 UTC,2445707.166667,28.7317,-95.2428,0215,-1.74,-9.85,10.0000,190.0000
1984-01-07 16:30:00 UTC,2445707.187500,28.7317,-95.2428,0215,-1.56,-8.86,9.0000,190.0000
1984-01-07 17:00:00 UTC,2445707.208333,28.7317,-95.2428,0215,-1.74,-9.85,10.0000,190.0000
1984-01-07 17:30:00 UTC,2445707.229167,28.7317,-95.2428,0215,-2.42,-9.70,10.0000,194.0000
1984-01-07 18:00:00 UTC,2445707.250000,28.7317,-95.2428,0215,-2.33,-8.69,9.0000,195.0000
1984-01-07 18:30:00 UTC,2445707.270833,28.7317,-95.2428,0215,-2.18,-8.73,9.0000,194.0000
1984-01-07 19:00:00 UTC,2445707.291667,28.7317,-95.2428,0215,-2.66,-10.67,11.0000,194.0000
1984-01-07 19:30:00 UTC,2445707.312500,28.7317,-95.2428,0215,-2.66,-10.67,11.0000,194.0000
1984-01-07 20:00:00 UTC,2445707.333333,28.7317,-95.2428,0215,-2.66,-10.67,11.0000,194.0000
1984-01-07 20:30:00 UTC,2445707.354167,28.7317,-95.2428,0215,-2.08,-9.78,10.0000,192.0000
1984-01-07 21:00:00 UTC,2445707.375000,28.7317,-95.2428,0215,-1.41,-8.89,9.0000,189.0000
1984-01-07 21:30:00 UTC,2445707.395833,28.7317,-95.2428,0215,-1.25,-8.91,9.0000,188.0000
1984-01-07 22:00:00 UTC,2445707.416667,28.7317,-95.2428,0215,-1.22,-9.93,10.0000,187.0000
1984-01-07 22:30:00 UTC,2445707.437500,28.7317,-95.2428,0215,-1.34,-10.92,11.0000,187.0000
1984-01-07 23:00:00 UTC,2445707.458333,28.7317,-95.2428,0215,-1.67,-11.88,12.0000,188.0000
1984-01-07 23:30:00 UTC,2445707.479167,28.7317,-95.2428,0215,-1.46,-11.91,12.0000,187.0000
1984-01-08 00:00:00 UTC,2445707.500000,28.7317,-95.2428,0215,-1.46,-11.91,12.0000,187.0000
1984-01-08 00:30:00 UTC,2445707.520833,28.7317,-95.2428,0215,-2.03,-12.84,13.0000,189.0000
1984-01-08 01:00:00 UTC,2445707.541667,28.7317,-95.2428,0215,-2.60,-14.77,15.0000,190.0000
1984-01-08 01:30:00 UTC,2445707.562500,28.7317,-95.2428,0215,-1.83,-14.89,15.0000,187.0000
1984-01-08 02:00:00 UTC,2445707.583333,28.7317,-95.2428,0215,-1.13,-12.95,13.0000,185.0000
1984-01-08 02:30:00 UTC,2445707.604167,28.7317,-95.2428,0215,-1.58,-12.90,13.0000,187.0000
1984-01-08 03:00:00 UTC,2445707.625000,28.7317,-95.2428,0215,-2.03,-12.84,13.0000,189.0000
1984-01-08 03:30:00 UTC,2445707.645833,28.7317,-95.2428,0215,-1.81,-12.87,13.0000,188.0000
1984-01-08 04:00:00 UTC,2445707.666667,28.7317,-95.2428,0215,-0.91,-12.97,13.0000,184.0000
1984-01-08 04:30:00 UTC,2445707.687500,28.7317,-95.2428,0215,-0.84,-11.97,12.0000,184.0000
1984-01-08 05:00:00 UTC,2445707.708333,28.7317,-95.2428,0215,-0.84,-11.97,12.0000,184.0000
1984-01-08 05:30:00 UTC,2445707.729167,28.7317,-95.2428,0215,0.19,-11.00,11.0000,179.0000
1984-01-08 06:00:00 UTC,2445707.750000,28.7317,-95.2428,0215,0.70,-9.98,10.0000,176.0000
1984-01-08 06:30:00 UTC,2445707.770833,28.7317,-95.2428,0215,0.77,-10.97,11.0000,176.0000
1984-01-08 07:00:00 UTC,2445707.791667,28.7317,-95.2428,0215,0.23,-13.00,13.0000,179.0000
1984-01-08 07:30:00 UTC,2445707.812500,28.7317,-95.2428,0215,-1.31,-14.94,15.0000,185.0000
1984-01-08 08:00:00 UTC,2445707.833333,28.7317,-95.2428,0215,-2.35,-14.82,15.0000,189.0000
1984-01-08 08:30:00 UTC,2445707.854167,28.7317,-95.2428,0215,-2.03,-12.84,13.0000,189.0000
1984-01-08 09:00:00 UTC,2445707.875000,28.7317,-95.2428,0215,-2.26,-12.80,13.0000,190.0000
1984-01-08 09:30:00 UTC,2445707.895833,28.7317,-95.2428,0215,-1.88,-11.85,12.0000,189.0000
1984-01-08 10:00:00 UTC,2445707.916667,28.7317,-95.2428,0215,-1.05,-11.95,12.0000,185.0000
1984-01-08 10:30:00 UTC,2445707.937500,28.7317,-95.2428,0215,-1.36,-12.93,13.0000,186.0000
1984-01-08 11:00:00 UTC,2445707.958333,28.7317,-95.2428,0215,-2.26,-12.80,13.0000,190.0000
1984-01-08 11:30:00 UTC,2445707.979167,28.7317,-95.2428,0215,-2.70,-12.72,13.0000,192.0000
1984-01-08 12:00:00 UTC,2445708.000000,28.7317,-95.2428,0215,-2.26,-12.80,13.0000,190.0000
1984-01-08 12:30:00 UTC,2445708.020833,28.7317,-95.2428,0215,-2.43,-13.79,14.0000,190.0000
1984-01-08 13:00:00 UTC,2445708.041667,28.7317,-95.2428,0215,-3.15,-13.64,14.0000,193.0000
1984-01-08 13:30:00 UTC,2445708.062500,28.7317,-95.2428,0215,-3.58,-12.50,13.0000,196.0000
1984-01-08 14:00:00 UTC,2445708.083333,28.7317,-95.2428,0215,-3.36,-12.56,13.0000,195.0000
1984-01-08 14:30:00 UTC,2445708.104167,28.7317,-95.2428,0215,-2.92,-12.67,13.0000,193.0000
1984-01-08 15:00:00 UTC,2445708.125000,28.7317,-95.2428,0215,-3.14,-12.61,13.0000,194.0000
1984-01-08 15:30:00 UTC,2445708.145833,28.7317,-95.2428,0215,-2.90,-11.64,12.0000,194.0000
1984-01-08 16:00:00 UTC,2445708.166667,28.7317,-95.2428,0215,-2.29,-11.78,12.0000,191.0000
1984-01-08 16:30:00 UTC,2445708.187500,28.7317,-95.2428,0215,-1.91,-10.83,11.0000,190.0000
1984-01-08 17:00:00 UTC,2445708.208333,28.7317,-95.2428,0215,-2.08,-9.78,10.0000,192.0000
1984-01-08 17:30:00 UTC,2445708.229167,28.7317,-95.2428,0215,-2.42,-9.70,10.0000,194.0000
1984-01-08 18:00:00 UTC,2445708.250000,28.7317,-95.2428,0215,-2.85,-10.63,11.0000,195.0000
1984-01-08 18:30:00 UTC,2445708.270833,28.7317,-95.2428,0215,-3.71,-11.41,12.0000,198.0000
1984-01-08 19:00:00 UTC,2445708.291667,28.7317,-95.2428,0215,-3.31,-11.54,12.0000,196.0000
1984-01-08 19:30:00 UTC,2445708.312500,28.7317,-95.2428,0215,-2.70,-11.69,12.0000,193.0000
1984-01-08 20:00:00 UTC,2445708.333333,28.7317,-95.2428,0215,-2.49,-11.74,12.0000,192.0000
1984-01-08 20:30:00 UTC,2445708.354167,28.7317,-95.2428,0215,-2.08,-11.82,12.0000,190.0000
1984-01-08 21:00:00 UTC,2445708.375000,28.7317,-95.2428,0215,-1.15,-10.94,11.0000,186.0000
1984-01-08 21:30:00 UTC,2445708.395833,28.7317,-95.2428,0215,-0.47,-8.99,9.0000,183.0000
1984-01-08 22:00:00 UTC,2445708.416667,28.7317,-95.2428,0215,-0.28,-8.00,8.0000,182.0000
1984-01-08 22:30:00 UTC,2445708.437500,28.7317,-95.2428,0215,0.00,-7.00,7.0000,180.0000
1984-01-08 23:00:00 UTC,2445708.458333,28.7317,-95.2428,0215,0.28,-8.00,8.0000,178.0000
1984-01-08 23:30:00 UTC,2445708.479167,28.7317,-95.2428,0215,0.00,-9.00,9.0000,180.0000
1984-01-09 00:00:00 UTC,2445708.500000,28.7317,-95.2428,0215,-0.63,-8.98,9.0000,184.0000
1984-01-09 00:30:00 UTC,2445708.520833,28.7317,-95.2428,0215,-1.25,-8.91,9.0000,188.0000
1984-01-09 01:00:00 UTC,2445708.541667,28.7317,-95.2428,0215,-1.56,-8.86,9.0000,190.0000
1984-01-09 01:30:00 UTC,2445708.562500,28.7317,-95.2428,0215,-1.53,-7.85,8.0000,191.0000
1984-01-09 02:00:00 UTC,2445708.583333,28.7317,-95.2428,0215,-1.41,-8.89,9.0000,189.0000
1984-01-09 02:30:00 UTC,2445708.604167,28.7317,-95.2428,0215,-1.10,-8.93,9.0000,187.0000
1984-01-09 03:00:00 UTC,2445708.625000,28.7317,-95.2428,0215,-0.94,-8.95,9.0000,186.0000
1984-01-09 03:30:00 UTC,2445708.645833,28.7317,-95.2428,0215,-0.94,-8.95,9.0000,186.0000
1984-01-09 04:00:00 UTC,2445708.666667,28.7317,-95.2428,0215,-0.97,-7.94,8.0000,187.0000
1984-01-09 04:30:00 UTC,2445708.687500,28.7317,-95.2428,0215,-1.11,-7.92,8.0000,188.0000
1984-01-09 05:00:00 UTC,2445708.708333,28.7317,-95.2428,0215,-1.56,-8.86,9.0000,190.0000
1984-01-09 05:30:00 UTC,2445708.729167,28.7317,-95.2428,0215,-1.41,-8.89,9.0000,189.0000
1984-01-09 06:00:00 UTC,2445708.750000,28.7317,-95.2428,0215,-1.39,-9.90,10.0000,188.0000
1984-01-09 06:30:00 UTC,2445708.770833,28.7317,-95.2428,0215,-1.05,-9.95,10.0000,186.0000
1984-01-09 07:00:00 UTC,2445708.791667,28.7317,-95.2428,0215,-0.78,-8.97,9.0000,185.0000
1984-01-09 07:30:00 UTC,2445708.812500,28.7317,-95.2428,0215,-0.56,-7.98,8.0000,184.0000
1984-01-09 08:00:00 UTC,2445708.833333,28.7317,-95.2428,0215,-0.12,-7.00,7.0000,181.0000
1984-01-09 08:30:00 UTC,2445708.854167,28.7317,-95.2428,0215,-0.24,-7.00,7.0000,182.0000
1984-01-09 09:00:00 UTC,2445708.875000,28.7317,-95.2428,0215,-0.42,-7.99,8.0000,183.0000
1984-01-09 09:30:00 UTC,2445708.895833,28.7317,-95.2428,0215,0.00,-8.00,8.0000,180.0000
1984-01-09 10:00:00 UTC,2445708.916667,28.7317,-95.2428,0215,0.00,-9.00,9.0000,180.0000
1984-01-09 10:30:00 UTC,2445708.937500,28.7317,-95.2428,0215,-0.70,-9.98,10.0000,184.0000
1984-01-09 11:00:00 UTC,2445708.958333,28.7317,-95.2428,0215,-0.78,-8.97,9.0000,185.0000
1984-01-09 11:30:00 UTC,2445708.979167,28.7317,-95.2428,0215,-0.73,-6.96,7.0000,186.0000
1984-01-09 12:00:00 UTC,2445709.000000,28.7317,-95.2428,0215,-1.80,-7.79,8.0000,193.0000
1984-01-09 12:30:00 UTC,2445709.020833,28.7317,-95.2428,0215,-2.63,-8.61,9.0000,197.0000
1984-01-09 13:00:00 UTC,2445709.041667,28.7317,-95.2428,0215,-2.92,-9.56,10.0000,197.0000
1984-01-09 13:30:00 UTC,2445709.062500,28.7317,-95.2428,0215,-3.09,-9.51,10.0000,198.0000
1984-01-09 14:00:00 UTC,2445709.083333,28.7317,-95.2428,0215,-3.09,-9.51,10.0000,198.0000
1984-01-09 14:30:00 UTC,2445709.104167,28.7317,-95.2428,0215,-2.25,-9.74,10.0000,193.0000
1984-01-09 15:00:00 UTC,2445709.125000,28.7317,-95.2428,0215,-2.47,-10.72,11.0000,193.0000
1984-01-09 15:30:00 UTC,2445709.145833,28.7317,-95.2428,0215,-4.30,-11.20,12.0000,201.0000
1984-01-09 16:00:00 UTC,2445709.166667,28.7317,-95.2428,0215,-5.29,-11.88,13.0000,204.0000
1984-01-09 16:30:00 UTC,2445709.187500,28.7317,-95.2428,0215,-4.10,-11.28,12.0000,200.0000
1984-01-09 17:00:00 UTC,2445709.208333,28.7317,-95.2428,0215,-1.10,-8.93,9.0000,187.0000
1984-01-09 17:30:00 UTC,2445709.229167,28.7317,-95.2428,0215,0.94,-8.95,9.0000,174.0000
1984-01-09 18:00:00 UTC,2445709.250000,28.7317,-95.2428,0215,0.47,-8.99,9.0000,177.0000
1984-01-09 18:30:00 UTC,2445709.270833,28.7317,-95.2428,0215,-0.52,-9.99,10.0000,183.0000
1984-01-09 19:00:00 UTC,2445709.291667,28.7317,-95.2428,0215,-0.31,-8.99,9.0000,182.0000
1984-01-09 19:30:00 UTC,2445709.312500,28.7317,-95.2428,0215,-0.78,-8.97,9.0000,185.0000
1984-01-09 20:00:00 UTC,2445709.333333,28.7317,-95.2428,0215,-1.25,-7.90,8.0000,189.0000
1984-01-09 20:30:00 UTC,2445709.354167,28.7317,-95.2428,0215,-0.70,-7.97,8.0000,185.0000
1984-01-09 21:00:00 UTC,2445709.375000,28.7317,-95.2428,0215,-0.56,-7.98,8.0000,184.0000
1984-01-09 21:30:00 UTC,2445709.395833,28.7317,-95.2428,0215,-1.56,-8.86,9.0000,190.0000
1984-01-09 22:00:00 UTC,2445709.416667,28.7317,-95.2428,0215,-1.72,-8.83,9.0000,191.0000
1984-01-09 22:30:00 UTC,2445709.437500,28.7317,-95.2428,0215,-1.25,-8.91,9.0000,188.0000
1984-01-09 23:00:00 UTC,2445709.458333,28.7317,-95.2428,0215,-0.94,-8.95,9.0000,186.0000
1984-01-09 23:30:00 UTC,2445709.479167,28.7317,-95.2428,0215,-1.56,-8.86,9.0000,190.0000
1984-01-10 00:00:00 UTC,2445709.500000,28.7317,-95.2428,0215,-2.63,-8.61,9.0000,197.0000
1984-01-10 00:30:00 UTC,2445709.520833,28.7317,-95.2428,0215,-2.21,-7.69,8.0000,196.0000
1984-01-10 01:00:00 UTC,2445709.541667,28.7317,-95.2428,0215,-2.33,-8.69,9.0000,195.0000
1984-01-10 01:30:00 UTC,2445709.562500,28.7317,-95.2428,0215,-2.25,-9.74,10.0000,193.0000
1984-01-10 02:00:00 UTC,2445709.583333,28.7317,-95.2428,0215,-1.34,-10.92,11.0000,187.0000
1984-01-10 02:30:00 UTC,2445709.604167,28.7317,-95.2428,0215,-1.53,-10.89,11.0000,188.0000
1984-01-10 03:00:00 UTC,2445709.625000,28.7317,-95.2428,0215,-1.72,-10.86,11.0000,189.0000
1984-01-10 03:30:00 UTC,2445709.645833,28.7317,-95.2428,0215,-0.58,-10.98,11.0000,183.0000
1984-01-10 04:00:00 UTC,2445709.666667,28.7317,-95.2428,0215,-0.77,-10.97,11.0000,184.0000
1984-01-10 04:30:00 UTC,2445709.687500,28.7317,-95.2428,0215,-1.46,-11.91,12.0000,187.0000
1984-01-10 05:00:00 UTC,2445709.708333,28.7317,-95.2428,0215,-1.46,-11.91,12.0000,187.0000
1984-01-10 05:30:00 UTC,2445709.729167,28.7317,-95.2428,0215,-2.03,-12.84,13.0000,189.0000
1984-01-10 06:00:00 UTC,2445709.750000,28.7317,-95.2428,0215,-2.70,-12.72,13.0000,192.0000
1984-01-10 06:30:00 UTC,2445709.770833,28.7317,-95.2428,0215,-2.48,-12.76,13.0000,191.0000
1984-01-10 07:00:00 UTC,2445709.791667,28.7317,-95.2428,0215,-2.70,-12.72,13.0000,192.0000
1984-01-10 07:30:00 UTC,2445709.812500,28.7317,-95.2428,0215,-3.80,-12.43,13.0000,197.0000